TimePDT,TemperatureF,Dew PointF,Humidity,Sea Level PressureIn,VisibilityMPH,Wind Direction,Wind SpeedMPH,Gust SpeedMPH,PrecipitationIn,Events,Conditions,WindDirDegrees,DateUTC
12:53 AM,61.0,50.0,67,30.05,10.0,NNW,13.8,19.6,N/A,,Clear,330,2013-08-03 07:53:00
1:53 AM,61.0,50.0,67,30.04,10.0,NNW,10.4,-,N/A,,Clear,330,2013-08-03 08:53:00
2:53 AM,59.0,50.0,72,30.05,10.0,NW,4.6,-,N/A,,Clear,310,2013-08-03 09:53:00
3:53 AM,55.9,48.9,77,30.06,10.0,Variable,3.5,-,N/A,,Clear,0,2013-08-03 10:53:00
4:53 AM,54.0,48.0,80,30.06,10.0,Calm,Calm,-,N/A,,Clear,0,2013-08-03 11:53:00
5:53 AM,53.1,48.0,83,30.08,10.0,ENE,5.8,-,N/A,,Clear,60,2013-08-03 12:53:00
6:53 AM,55.9,50.0,80,30.09,10.0,ENE,3.5,-,N/A,,Clear,60,2013-08-03 13:53:00
7:53 AM,62.1,51.1,67,30.09,10.0,Calm,Calm,-,N/A,,Clear,0,2013-08-03 14:53:00
8:53 AM,64.9,52.0,63,30.10,10.0,Calm,Calm,-,N/A,,Clear,0,2013-08-03 15:53:00
9:53 AM,69.1,52.0,54,30.09,10.0,SSE,4.6,-,N/A,,Clear,150,2013-08-03 16:53:00
10:53 AM,73.0,53.1,49,30.08,10.0,ENE,3.5,-,N/A,,Clear,60,2013-08-03 17:53:00
11:53 AM,77.0,52.0,42,30.07,10.0,SE,6.9,-,N/A,,Clear,140,2013-08-03 18:53:00
12:53 PM,80.1,51.1,36,30.06,10.0,ESE,9.2,-,N/A,,Clear,120,2013-08-03 19:53:00
1:53 PM,82.0,50.0,33,30.05,10.0,SE,10.4,-,N/A,,Clear,130,2013-08-03 20:53:00
2:53 PM,84.9,50.0,30,30.04,10.0,South,5.8,-,N/A,,Clear,170,2013-08-03 21:53:00
3:53 PM,84.9,50.0,30,30.02,10.0,ESE,6.9,-,N/A,,Clear,110,2013-08-03 22:53:00
4:53 PM,84.9,50.0,30,30.01,10.0,Variable,5.8,-,N/A,,Clear,0,2013-08-03 23:53:00
5:53 PM,86.0,51.1,30,29.99,10.0,Calm,Calm,-,N/A,,Clear,0,2013-08-04 00:53:00
6:53 PM,82.0,52.0,35,29.99,10.0,SE,6.9,-,N/A,,Clear,130,2013-08-04 01:53:00
7:53 PM,79.0,54.0,42,29.98,10.0,ESE,3.5,-,N/A,,Clear,110,2013-08-04 02:53:00
8:53 PM,72.0,55.0,55,30.00,10.0,East,8.1,-,N/A,,Clear,80,2013-08-04 03:53:00
9:53 PM,70.0,54.0,57,30.01,10.0,ENE,5.8,-,N/A,,Clear,70,2013-08-04 04:53:00
10:53 PM,66.0,53.1,63,30.02,10.0,North,3.5,-,N/A,,Clear,10,2013-08-04 05:53:00
11:53 PM,63.0,52.0,67,30.02,10.0,NNE,3.5,-,N/A,,Clear,20,2013-08-04 06:53:00